• In Hungary
  • List of Countries
  • For 7 days
  • Water Temperature
  • Satellite Maps
  • Weather Map
  • News
  • Weather Widgets
  • user-avatar
    Login

    Hourly Weather Filderstadt

    Today, 23 May, Wednesday

    Time Temperature Precipitation Wind Pressure Humidity
    00:00 +13°C° 0.2 mm 0 mps 726 mmHg 89%
    01:00 +14°C° 0 mm 1 mps 726 mmHg 91%
    02:00 +13°C° 0.1 mm 0 mps 726 mmHg 92%
    03:00 +13°C° 0.1 mm 0 mps 727 mmHg 92%
    04:00 +12°C° 0.1 mm 0 mps 727 mmHg 93%
    05:00 +13°C° 0.3 mm 0 mps 727 mmHg 92%
    06:00 +14°C° 0.3 mm 0 mps 727 mmHg 91%
    07:00 +16°C° 0 mm 1 mps 728 mmHg 89%
    08:00 +18°C° 0.6 mm 1 mps 728 mmHg 87%
    09:00 +19°C° 0.6 mm 1 mps 728 mmHg 84%
    10:00 +19°C° 0.6 mm 2 mps 728 mmHg 82%
    11:00 +20°C° 1.2 mm 2 mps 728 mmHg 78%
    12:00 +21°C° 1.2 mm 2 mps 728 mmHg 75%
    13:00 +22°C° 0 mm 1 mps 729 mmHg 72%
    14:00 +23°C° 0.7 mm 2 mps 728 mmHg 70%
    15:00 +23°C° 0.7 mm 2 mps 728 mmHg 68%
    16:00 +23°C° 0.7 mm 2 mps 728 mmHg 66%
    17:00 +21°C° 0.5 mm 2 mps 728 mmHg 72%
    18:00 +20°C° 0.5 mm 2 mps 728 mmHg 78%
    19:00 +20°C° 0.5 mm 1 mps 728 mmHg 84%
    20:00 +19°C° 0.7 mm 1 mps 728 mmHg 86%
    21:00 +18°C° 0.7 mm 1 mps 728 mmHg 89%
    22:00 +16°C° 0.7 mm 1 mps 728 mmHg 91%
    23:00 +15°C° 0 mm 1 mps 728 mmHg 92%

    Tomorrow, 24 May, Thursday

    Time Temperature Precipitation Wind Pressure Humidity
    00:00 +15°C° 0 mm 1 mps 728 mmHg 92%
    01:00 +15°C° 0 mm 1 mps 728 mmHg 92%
    02:00 +14°C° 0 mm 1 mps 728 mmHg 93%
    03:00 +14°C° 0 mm 1 mps 728 mmHg 93%
    04:00 +14°C° 0 mm 1 mps 728 mmHg 94%
    05:00 +15°C° 0.1 mm 1 mps 729 mmHg 92%
    06:00 +16°C° 0.1 mm 1 mps 729 mmHg 90%
    07:00 +18°C° 0.1 mm 1 mps 729 mmHg 88%
    08:00 +19°C° 0.5 mm 1 mps 729 mmHg 85%
    09:00 +20°C° 0.5 mm 1 mps 729 mmHg 81%
    10:00 +22°C° 0.5 mm 1 mps 730 mmHg 77%
    11:00 +22°C° 1.4 mm 1 mps 729 mmHg 78%
    12:00 +22°C° 1.4 mm 1 mps 729 mmHg 78%
    13:00 +22°C° 1.4 mm 1 mps 729 mmHg 78%
    14:00 +22°C° 0.4 mm 1 mps 729 mmHg 76%
    15:00 +23°C° 0.4 mm 1 mps 729 mmHg 74%
    16:00 +23°C° 0.4 mm 1 mps 728 mmHg 71%
    17:00 +23°C° 0.3 mm 1 mps 728 mmHg 75%
    18:00 +20°C° 0.3 mm 0 mps 728 mmHg 79%
    19:00 +19°C° 0.3 mm 0 mps 728 mmHg 82%
    20:00 +18°C° 0.1 mm 0 mps 729 mmHg 85%
    21:00 +18°C° 0.1 mm 1 mps 729 mmHg 87%
    22:00 +16°C° 0.1 mm 1 mps 729 mmHg 90%
    23:00 +15°C° 0 mm 1 mps 729 mmHg 90%

    Day after tomorrow, 25 May, Friday

    Time Temperature Precipitation Wind Pressure Humidity
    00:00 +15°C° 0 mm 1 mps 729 mmHg 91%
    01:00 +15°C° 0 mm 1 mps 729 mmHg 92%
    02:00 +14°C° 0 mm 1 mps 729 mmHg 92%
    03:00 +14°C° 0 mm 1 mps 729 mmHg 92%
    04:00 +14°C° 0 mm 1 mps 729 mmHg 92%
    05:00 +15°C° 0 mm 1 mps 729 mmHg 90%
    06:00 +16°C° 0 mm 1 mps 729 mmHg 87%
    07:00 +17°C° 0 mm 0 mps 730 mmHg 84%
    08:00 +19°C° 0 mm 0 mps 730 mmHg 76%
    09:00 +21°C° 0 mm 0 mps 730 mmHg 69%
    10:00 +23°C° 0 mm 0 mps 730 mmHg 61%
    11:00 +24°C° 0 mm 0 mps 730 mmHg 57%
    12:00 +25°C° 0 mm 0 mps 730 mmHg 54%
    13:00 +26°C° 0 mm 0 mps 730 mmHg 50%
    14:00 +27°C° 0 mm 1 mps 730 mmHg 50%
    15:00 +27°C° 0 mm 1 mps 730 mmHg 50%
    16:00 +27°C° 0 mm 1 mps 729 mmHg 50%
    17:00 +26°C° 0 mm 1 mps 729 mmHg 57%
    18:00 +24°C° 0 mm 1 mps 729 mmHg 64%
    19:00 +23°C° 0 mm 1 mps 729 mmHg 71%
    20:00 +21°C° 0 mm 1 mps 730 mmHg 75%
    21:00 +20°C° 0 mm 1 mps 730 mmHg 80%
    22:00 +18°C° 0 mm 1 mps 730 mmHg 84%
    23:00 +18°C° 0 mm 1 mps 730 mmHg 86%

    26 May, Saturday

    Time Temperature Precipitation Wind Pressure Humidity
    00:00 +16°C° 0 mm 1 mps 730 mmHg 88%
    01:00 +16°C° 0 mm 1 mps 730 mmHg 89%
    02:00 +16°C° 0 mm 1 mps 730 mmHg 90%
    03:00 +15°C° 0 mm 1 mps 729 mmHg 91%
    04:00 +15°C° 0 mm 1 mps 729 mmHg 91%
    05:00 +16°C° 0 mm 1 mps 730 mmHg 88%
    06:00 +19°C° 0 mm 1 mps 730 mmHg 85%
    07:00 +20°C° 0 mm 1 mps 730 mmHg 82%
    08:00 +21°C° 0 mm 2 mps 730 mmHg 76%
    09:00 +24°C° 0 mm 2 mps 730 mmHg 70%
    10:00 +25°C° 0 mm 2 mps 731 mmHg 64%
    11:00 +26°C° 0 mm 2 mps 731 mmHg 60%
    12:00 +27°C° 0 mm 2 mps 731 mmHg 57%
    13:00 +28°C° 0 mm 3 mps 731 mmHg 53%
    14:00 +28°C° 0 mm 3 mps 730 mmHg 54%
    15:00 +28°C° 0 mm 3 mps 730 mmHg 55%
    16:00 +28°C° 0 mm 3 mps 730 mmHg 56%
    17:00 +27°C° 0 mm 2 mps 730 mmHg 62%
    18:00 +26°C° 0 mm 2 mps 730 mmHg 69%
    19:00 +24°C° 0 mm 2 mps 730 mmHg 76%
    20:00 +23°C° 0 mm 2 mps 731 mmHg 80%
    21:00 +20°C° 0 mm 2 mps 731 mmHg 83%
    22:00 +19°C° 0 mm 2 mps 731 mmHg 87%
    23:00 +19°C° 0 mm 1 mps 731 mmHg 88%

    27 May, Sunday

    Time Temperature Precipitation Wind Pressure Humidity
    00:00 +19°C° 0 mm 1 mps 731 mmHg 89%
    01:00 +18°C° 0 mm 1 mps 731 mmHg 90%
    02:00 +18°C° 0 mm 1 mps 730 mmHg 90%
    03:00 +16°C° 0 mm 1 mps 730 mmHg 91%
    04:00 +16°C° 0 mm 1 mps 730 mmHg 92%
    05:00 +18°C° 0 mm 1 mps 730 mmHg 88%
    06:00 +19°C° 0 mm 1 mps 730 mmHg 85%
    07:00 +19°C° 0 mm 2 mps 730 mmHg 81%
    08:00 +21°C° 0 mm 2 mps 730 mmHg 75%
    09:00 +24°C° 0 mm 3 mps 730 mmHg 69%
    10:00 +26°C° 0 mm 3 mps 730 mmHg 63%
    11:00 +27°C° 0 mm 3 mps 730 mmHg 61%
    12:00 +28°C° 0 mm 3 mps 730 mmHg 58%
    13:00 +28°C° 0 mm 3 mps 730 mmHg 56%
    14:00 +28°C° 0 mm 3 mps 729 mmHg 57%
    15:00 +28°C° 0 mm 3 mps 729 mmHg 57%
    16:00 +29°C° 0 mm 3 mps 729 mmHg 58%
    17:00 +27°C° 0 mm 2 mps 729 mmHg 64%
    18:00 +26°C° 0 mm 2 mps 729 mmHg 70%
    19:00 +25°C° 0 mm 2 mps 729 mmHg 77%
    20:00 +23°C° 0 mm 2 mps 729 mmHg 80%
    21:00 +21°C° 0 mm 2 mps 729 mmHg 83%
    22:00 +21°C° 0 mm 1 mps 729 mmHg 86%
    23:00 +20°C° 0 mm 1 mps 729 mmHg 87%

    28 May, Monday

    Time Temperature Precipitation Wind Pressure Humidity
    00:00 +20°C° 0 mm 1 mps 728 mmHg 88%
    01:00 +19°C° 0 mm 1 mps 728 mmHg 89%
    02:00 +19°C° 0 mm 1 mps 728 mmHg 90%
    03:00 +19°C° 0 mm 1 mps 728 mmHg 90%
    04:00 +18°C° 0 mm 1 mps 728 mmHg 90%
    05:00 +19°C° 0 mm 1 mps 728 mmHg 88%
    06:00 +20°C° 0 mm 1 mps 728 mmHg 85%
    07:00 +21°C° 0 mm 1 mps 728 mmHg 83%
    08:00 +23°C° 0 mm 1 mps 729 mmHg 77%
    09:00 +25°C° 0 mm 1 mps 729 mmHg 72%
    10:00 +26°C° 0 mm 2 mps 729 mmHg 66%
    11:00 +27°C° 0 mm 2 mps 729 mmHg 63%
    12:00 +28°C° 0 mm 2 mps 728 mmHg 60%
    13:00 +29°C° 0 mm 2 mps 728 mmHg 56%
    14:00 +29°C° 0.1 mm 2 mps 728 mmHg 58%
    15:00 +29°C° 0.1 mm 2 mps 727 mmHg 59%
    16:00 +29°C° 0.1 mm 2 mps 727 mmHg 61%
    17:00 +27°C° 0.4 mm 2 mps 727 mmHg 67%
    18:00 +26°C° 0.4 mm 2 mps 727 mmHg 73%
    19:00 +25°C° 0.4 mm 2 mps 727 mmHg 80%
    20:00 +24°C° 0.4 mm 1 mps 727 mmHg 81%
    21:00 +23°C° 0.4 mm 1 mps 727 mmHg 83%
    22:00 +22°C° 0.4 mm 1 mps 727 mmHg 84%
    23:00 +21°C° 0.3 mm 1 mps 727 mmHg 84%
    Show more